www.pogodaiklimat.ru

Погода и климат >> Архив погоды >> Казахстан >> Караганда


АРХИВ ПОГОДЫ в Караганде

Время (UTC), дата Ветер
(напр.,м/с)
 
Видим.   Явления Облачность Т
(С)
Тd
(С)
f
(%)
Тe
(С)
Тes
(С)
Комфортность P
(гПа)
Po
(гПа)
Тmin
(С)
Tmax
(С)
R
(мм)
R24
(мм)
S
(см)
15 13.08 СВ 1 20 км ясно +17.6 +5.8 46 +19 +19 по сезону 1017.3 954.0 +22.4
18 13.08 штиль 0 20 км ясно +13.6 +4.7 55 +13 +13 прохладно 1018.7 954.5 +22.4
21 13.08 штиль 0 20 км ясно +10.8 +4.0 63 +10 +10 прохладно 1019.3 954.4
00 14.08 В 1 20 км ясно +8.1 +4.1 76 +7 +7 холодно 1020.6 955.1
03 14.08 Ю 2 20 км ясно +17.5 +4.8 43 +18 +23 по сезону 1019.4 956.0
06 14.08 В 3 20 км ясно +23.3 +4.2 29 +23 +34 комфорт 1017.6 955.5 +8.1
09 14.08 С 4 20 км ясно +25.2 +4.2 26 +25 +33 комфорт 1015.4 953.8
12 14.08 В 2 20 км ясно +26.5 +4.7 25 +26 +28 жарко 1014.0 952.7
15 14.08 В 2 20 км ясно +20.4 +6.2 40 +22 +22 комфорт 1015.1 952.6 +27.1
18 14.08 ЮВ 3 20 км ясно +17.5 +4.0 41 +18 +18 тепло 1015.5 952.3 +27.1
21 14.08 ЮВ 2 20 км ясно +14.7 +4.9 52 +15 +15 по сезону 1014.8 951.1
00 15.08 ЮВ 2 20 км ясно +13.0 +4.8 57 +12 +12 по сезону 1015.4 951.3
03 15.08 Ю 2 20 км 3/0
[Ci sp]
+19.1 +6.9 45 +20 +25 тепло 1014.1 951.4
06 15.08 ЮЗ 2 20 км 6/0
[Ci fib]
+24.6 +5.6 29 +24 +36 комфорт 1012.0 950.5 +12.8
09 15.08 Ю 1 20 км 8/0
[Ac cast Ci sp]
+27.6 +4.0 22 +26 +36 жарко 1009.8 949.0
12 15.08 СЗ 1 20 км 6/1 1000 м
[Cu hum Ac lent]
+29.3 +1.9 17 +27 +29 жарко 1008.9 948.4
15 15.08 С 1 20 км 3/0
[Ac cast]
+21.5 +7.3 40 +22 +22 комфорт 1010.1 948.1 +29.4
18 15.08 В 2 20 км ясно +19.1 +5.6 41 +20 +20 тепло 1010.1 947.6 +29.4
21 15.08 штиль 0 20 км ясно +15.5 +5.0 50 +15 +15 по сезону 1009.7 946.5
00 16.08 ЮВ 1 20 км ясно +15.1 +5.5 53 +16 +16 тепло 1008.9 945.7
03 16.08 штиль 0 20 км 4/0
[Ac cast Cc]
+21.5 +7.3 40 +22 +28 комфорт 1007.4 945.6
06 16.08 СЗ 1 20 км 6/0
[Ac cast Ci fib]
+27.7 +4.3 22 +26 +38 жарко 1005.1 944.6 +14.4
09 16.08 СЗ 4 20 км 8/4 1000 м
[Cu med, cong Ac lent Ci sp]
+28.8 +4.5 21 +27 +30 жарко 1004.0 943.8
12 16.08 СЗ 3 20 км в посл. час гроза 8/4 600 м
[Cb cap Ac lent Ci ing]
+25.1 +7.4 32 +25 +26 комфорт 1004.5 943.6
15 16.08 СВ 2 20 км в посл. час гроза {ливн. осадки} 8/8 600 м
[Cb cap]
+17.7 +13.8 78 +18 +18 прохладно 1007.0 944.5 +30.4
18 16.08 С 3 20 км гроза без осадков {ливн. осадки} 9/9 600 м
[Cb cap]
+14.0 +12.0 88 +13 +13 прохладно 1010.3 946.9 +30.4 4
21 16.08 З 2 10 км гроза, ливневой дождь 9/9 600 м
[Cb cap]
+13.2 +11.2 88 +12 +12 по сезону 1010.5 946.8
00 17.08 СЗ 2 20 км {гроза, ливн. осадки} 8/8 1000 м
[Sc diur, vesp]
+11.9 +10.2 89 +11 +11 по сезону 1011.5 947.5
03 17.08 С 1 20 км 1/0
[Ci fib]
+16.0 +10.7 71 +17 +22 по сезону 1011.9 948.7
06 17.08 СВ 3 20 км 3/1 1000 м
[Cu hum Ac trans]
+21.6 +10.8 50 +23 +32 комфорт 1011.4 949.4 +11.8 4
09 17.08 С 3 20 км 4/4 600 м
[Cb cap]
+23.3 +10.8 45 +25 +31 комфорт 1011.1 949.5
12 17.08 СВ 3 20 км 3/3 1000 м
[Cu med, cong]
+23.4 +11.8 48 +26 +28 жарко 1010.9 949.4
15 17.08 С 1 20 км ясно +19.9 +12.2 61 +23 +23 комфорт 1012.6 950.2 +24.5
18 17.08 С 1 20 км 5/0
[Ci fib]
+15.5 +12.5 82 +16 +16 по сезону 1013.6 950.3 +24.5
21 17.08 штиль 0 20 км ясно +14.1 +11.7 85 +14 +14 по сезону 1013.5 949.8
00 18.08 В 1 20 км ясно +14.3 +11.6 84 +15 +15 тепло 1013.4 949.8
03 18.08 В 3 20 км 3/0
[Ac cast]
+19.7 +12.4 63 +22 +25 комфорт 1012.2 949.9
06 18.08 В 3 20 км 4/4 1000 м
[Cu med, cong]
+25.4 +11.4 42 +27 +33 жарко 1009.7 948.6 +13.5
09 18.08 ЮВ 2 20 км 9/9 600 м
[Cb cap]
+26.8 +9.2 33 +27 +28 жарко 1007.7 946.9
12 18.08 С 3 20 км 8/8 1000 м
[Cu med, cong]
+27.6 +8.7 30 +27 +28 жарко 1006.0 945.6
15 18.08 СВ 2 20 км 1/1 1000 м
[Sc]
+23.2 +9.5 42 +25 +25 комфорт 1006.8 945.4 +28.0
18 18.08 В 4 20 км ясно +21.2 +8.9 45 +22 +22 комфорт 1006.6 944.8 +28.0
21 18.08 ЮВ 2 20 км 3/0
[Ac trans]
+18.2 +8.4 53 +19 +19 тепло 1006.2 943.8
00 19.08 ЮВ 2 20 км 8/6 1000 м
[Sc Ac trans]
+17.1 +7.4 53 +17 +17 тепло 1006.1 943.5
03 19.08 ЮВ 3 20 км 8/8 1000 м
[Sc]
+21.5 +7.3 40 +22 +23 комфорт 1005.1 943.4
06 19.08 Ю 3 20 км 8/3 1000 м
[Cu hum Ac trans Ci fib]
+27.8 +6.6 26 +27 +32 жарко 1003.1 942.8 +16.4
09 19.08 В 3 20 км 9/8 600 м
[Cb cap Ci fib]
+30.3 +4.5 19 +28 +30 жарко 1000.4 940.7
12 19.08 С 5 20 км гроза, ливневой дождь 9/8 600 м
[Cb cap Ci fib]
+23.4 +9.8 42 +25 +25 комфорт 1001.1 940.1
15 19.08 С 5 20 км гроза без осадков {ливн. осадки} 10/10 600 м
[Cb cap]
+17.8 +12.6 72 +17 +17 прохладно 1003.4 941.2 +31.0
18 19.08 СВ 4 20 км {гроза, ливн. осадки} 8/0
[Ci sp]
+19.5 +11.6 60 +21 +21 комфорт 1002.1 940.3 +31.0 2
21 19.08 В 3 20 км ясно +17.1 +11.0 67 +17 +17 тепло 1001.5 939.3
00 20.08 В 1 20 км 10/10 600 м
[Cb cap]
+15.0 +11.2 78 +16 +16 тепло 1000.7 938.0
03 20.08 С 3 20 км 10/8 600 м
[Cb cap Ac und]
+18.2 +11.0 63 +19 +19 тепло 1000.2 938.2
06 20.08 СВ 3 20 км 10/3 1000 м
[Sc Ac trans Cs]
+23.1 +11.3 47 +25 +29 комфорт 998.9 938.0 +14.8
09 20.08 СЗ 3 20 км 9/0
[Ac lent Ci sp]
+24.3 +12.6 48 +26 +31 жарко 998.8 938.2

 

Местоположение метеостанции Караганда (Карагандинская область, Казахстан): широта 49.80 долгота 73.15 высота над уровнем моря 553 м.

В архиве по умолчанию представлена погода в Караганде за последнюю неделю. Архивные данные за месяц целиком и за предыдущие месяцы, начиная с января 2011 года, Вы можете получить, выбрав интересующий диапазон дат из раскрывающегося списка и нажав кнопку "Ввод!".


*Определитесь, кто Вы:
робот инопланетянин человек

Внимание! Время в таблицах - всемирное. Для получения местного времени необходимо прибавить поправку, которая в Караганде равна 6 ч.

Смотрите также архив погоды в соседних городах и на ближайших метеорологических станциях:

Погода в Караганде-ШОС (Карагандинская область, Казахстан) (4 км)
Погода в Корнеевке (Карагандинская область, Казахстан) (11 км)
Погода в Темиртау (Карагандинская область, Казахстан) (33 км)
Погода в Топаре (Карагандинская область, Казахстан) (40 км)
Погода в Осакаровке (Карагандинская область, Казахстан) (94 км)
Погода в Молодежном (Карагандинская область, Казахстан) (107 км)
Погода в Бесобе (Карагандинская область, Казахстан) (108 км)
Погода в Жарыке (Карагандинская область, Казахстан) (108 км)
Погода в Кертинди (Карагандинская область, Казахстан) (114 км)
Погода в Киевке (Карагандинская область, Казахстан) (123 км)

Пояснения к столбцам:

Ветер - указаны скорость ветра в м/с - средняя за 10 мин, порывы в срок и между сроками (в фигурных скобках) и направление, откуда дует ветер: С - северный, СВ - северо-восточный, В - восточный, ЮВ - юго-восточный, Ю - южный, ЮЗ - юго-западный, З - западный, СЗ - северо-западный.
Видимость - горизонтальная дальность видимости в метрах или километрах. При видимости от 1 до 10 км при отсутствии осадков обычно наблюдается дымка, при ухудшении видимости до 1 км и менее - туман. В сухую погоду видимость может ухудшаться дымом, пылью или мглою.
Явления - указаны атмосферные явления, наблюдавшиеся в срок или в последний час перед сроком; фигурными скобками обозначены явления, наблюдавшиеся между сроками (за 1-3 часа до срока); квадратными скобками обозначены град или гололедные отложения с указанием их диаметра в мм.
Облачность - указаны через наклонную черту общая и нижняя облачность в баллах и высота нижней границы облаков в метрах; квадратными скобками обозначены формы облаков: Ci - перистые, Cs - перисто-слоистые, Cc - перисто-кучевые, Ac - высококучевые, As - высокослоистые, Sc - слоисто-кучевые, Ns - слоисто-дождевые, Cu - кучевые, Cb - кучево-дождевые. Подробнее классификацию облаков см. в Атласе облаков (PDF).
T - Температура воздуха - температура, измеренная на высоте 2 м над землей.
Td - Температура точки росы - температура, при понижении до которой содержащийся в воздухе водяной пар достигнет насыщения.
f - Относительная влажность воздуха - влажноcть воздуха, измеренная на высоте 2 м над землей.
Te - Эффективная температура - температура, которую ощущает одетый по сезону человек в тени. Характеристика душности погоды. При расчете учитывается влияние влажности воздуха и скорости ветра на теплоощущения человека.
Tes - Эффективная температура на солнце - температура, которую ощущает человек, с поправкой на солнечный нагрев. Характеристика знойности погоды. Зависит от высоты солнца над горизонтом, облачности и скорости ветра. Ночью, в пасмурную погоду, а также при ветре 12 м/с и более поправка равна нулю.
P - Атмосферное давление - приведенное к уровню моря атмосферное давление.
Po - Атмосферное давление - измеренное на уровне метеостанции атмосферное давление.
Tmin - Минимальная температура - минимум температуры воздуха на высоте 2 м над землей.
Tmax - Максимальная температура - максимум температуры воздуха на высоте 2 м над землей.
R - Количество осадков - Количество выпавших осадков за период времени, мм. При наведении курсора мыши на число - период времени, за который выпало указанное количество осадков.
R24 - Количество осадков - Количество выпавших осадков за 24 часа, мм.
S - Снежный покров - Высота снежного покрова, см. При наведении курсора мыши на число - состояние снежного покрова и степень покрытия местности в баллах.